Lid_Strength_Index
0 -1 -1 -1 -1 -1 -1 -1 -1 -1 -1 -1 -2 -1 -1 -1 -1 -2 -2 -2 -2 -2 -2 -2 -2 -2 -2 -2 -2 -2 -2 -2 -2 -2 -2 -1 -1 -2 -2 -2 -2 -1 -1
-1 -1 -1 -1 -1 -1 -1 -1 -1 -1 -1 -1 -1 -1 -1 -1 -1 -1 -2 -2 -2 -2 -2 -2 -2 -2 -2 -2 -2 -2 -2 -2 -1 -2 -2 -1 -2 -2 -2 -2 -2 -2 -1
-0 -1 -1 -1 -1 -1 -1 -1 -1 -1 -1 -1 -1 -1 -1 -1 -1 -1 -1 -2 -2 -2 -2 -2 -2 -2 -2 -2 -2 -2 -2 -2 -2 -2 -2 -2 -2 -2 -2 -2 -2 -2 -2
-1 -1 -1 -1 -1 -1 -1 -1 -1 -2 -1 -1 -1 -1 -1 -1 -1 -2 -1 -2 -2 -2 -2 -2 -2 -2 -2 -2 -2 -2 -2 -2 -2 -2 -2 -2 -2 -2 -2 -2 -2 -2 -2
-1 -1 -1 -1 -1 -1 -1 -1 -1 -1 -1 -2 -2 -1 -1 -2 -2 -2 -2 -2 -2 -2 -2 -2 -2 -2 -2 -2 -2 -2 -2 -2 -3 -2 -2 -2 -2 -2 -2 -2 -3 -2 -2
-1 -1 -1 -0 -1 -1 -1 -1 -1 -1 -1 -2 -2 -1 -2 -2 -1 -2 -2 -2 -2 -2 -2 -2 -2 -2 -2 -2 -2 -2 -2 -3 -3 -2 -2 -2 -2 -2 -2 -2 -3 -2 -2
-0 -1 -1 0 -0 -1 -1 -1 -1 -1 -1 -1 -1 -2 -2 -2 -2 -2 -2 -2 -2 -2 -2 -2 -2 -2 -2 -2 -2 -2 -3 -3 -2 -2 -2 -2 -2 -2 -2 -2 -2 -2 -2
-0 -1 -1 -1 -1 -1 -1 -1 -1 -1 -1 -1 -2 -2 -2 -2 -2 -2 -2 -2 -2 -2 -2 -2 -2 -2 -2 -1 -2 -2 -3 -3 -2 -2 -1 -2 -3 -2 -2 -2 -2 -2 -2
-1 -1 -1 -1 -1 -1 -1 -1 -1 -1 -1 -2 -2 -2 -2 -2 -2 -2 -2 -2 -2 -2 -2 -2 -2 -2 -2 -2 -2 -3 -2 -2 -2 -2 -1 -2 -2 -2 -2 -2 -2 -2 -2
-1 -1 -1 -1 -2 -2 -2 -1 -1 -1 -1 -1 -2 -2 -2 -2 -2 -2 -3 -2 -2 -2 -1 -1 -2 -2 -3 -2 -2 -2 -2 -3 -2 -2 -2 -2 -2 -2 -2 -2 -2 -2 -2
0 -1 -1 -1 -2 -2 -2 -1 -1 -1 -1 -2 -2 -2 -1 -2 -2 -2 -2 -2 -1 -2 -1 -1 -2 -2 -3 -2 -2 -2 -2 -2 -2 -1 -2 -2 -2 -2 -2 -2 -2 -3 -3
1 -0 -1 -1 -1 -2 -1 -2 -2 -2 -2 -2 -2 -2 -2 -2 -2 -2 -2 -1 -2 -2 -2 -1 -2 -2 -2 -2 -2 -2 -1 -1 -1 -1 -1 -1 -2 -2 -2 -2 -2 -2 -2
0 -0 -1 -1 -2 -2 -1 -2 -2 -2 -2 -2 -2 -2 -2 -2 -3 -3 -3 -3 -3 -2 -3 -2 -3 -2 -2 -2 -1 -1 -1 -1 -1 -0 -1 -0 -1 -2 -2 -2 -2 -2 -2
1 -0 -1 -1 -1 -2 -2 -2 -2 -2 -2 -2 -2 -2 -2 -2 -2 -2 -2 -3 -3 -3 -2 -2 -2 -2 -2 -1 -1 -1 -1 -0 -0 0 -0 0 -0 -1 -2 -2 -2 -2 -2
1 0 -0 -1 -1 -1 -1 -2 -2 -2 -2 -2 -2 -2 -2 -2 -2 -2 -2 -3 -2 -3 -2 -2 -1 -1 -0 -0 -1 -0 0 0 -0 -0 -1 -0 0 -0 -1 -1 -1 -2 -2
0 0 -1 -1 -1 -1 -1 -2 -1 -2 -2 -2 -2 -2 -1 -2 -1 -2 -2 -2 -2 -1 -1 -1 0 0 0 -0 0 0 0 0 -0 -0 -0 -1 1 2 2 1 0 -0 -1
0 0 -0 -1 -1 -1 -1 -1 -1 -1 -2 -1 -2 -1 -2 -2 -2 -2 -1 -0 0 0 0 0 1 0 0 0 0 0 0 0 1 1 1 1 1 2 3 3 3 2 2
0 0 -0 -1 -1 -1 -1 0 0 0 -0 -1 -1 -1 -1 -1 -0 0 1 1 1 1 1 1 1 1 1 1 1 2 2 2 2 2 2 2 2 3 2 4 4 4 3
0 0 0 -1 -0 -1 -0 1 1 2 1 1 1 2 2 2 1 1 1 1 0 1 1 1 2 2 3 3 3 4 3 3 3 3 3 2 3 3 3 3 4 4 5
0 -0 0 -0 1 2 1 1 2 2 3 2 2 2 1 1 1 1 1 1 1 2 3 3 3 3 3 3 3 4 3 3 2 2 2 3 3 3 3 3 3 4 4
1 0 0 0 0 1 -0 1 2 3 2 2 1 1 1 1 1 1 1 2 2 3 3 3 3 3 4 3 4 4 4 3 2 2 3 3 3 3 3 3 3 3 4
1 1 0 0 -0 -0 -0 -0 -0 1 1 1 2 1 1 1 1 2 2 2 2 3 3 3 3 4 4 4 5 5 7 6 4 3 3 3 3 3 3 3 3 3 3
1 1 1 0 -0 -1 -1 -0 0 1 1 2 2 2 1 1 2 2 2 2 2 3 3 3 3 4 5 4 4 5 7 8 6 4 4 4 3 4 3 3 3 3 3
1 0 -0 -0 -0 -0 -0 1 1 1 1 1 -0 1 1 2 2 2 2 2 3 3 3 3 4 4 4 5 5 5 5 5 9 9 5 5 4 4 4 3 3 3 3
1 0 0 0 1 0 0 1 1 1 0 0 1 1 1 1 2 3 3 3 3 3 3 3 3 4 4 5 5 6 6 6 6 7 8 7 5 4 3 2 1 1 1
1 1 0 1 1 -0 -0 -0 -0 0 1 1 1 2 2 3 3 3 3 3 3 3 3 3 3 4 4 5 5 5 6 8 8 8 7 6 5 3 1 1 1 1 1